EW8311 Weather Reports


time (UTC)temp
F
wind
direction
speed
knots
gust
knots
rain 1hr
in
rain 24hr
in
rain mn
in
humidity
%
barometer
mb
20200531081734 80 103 0.0 1.7 0.00 0.00 0.00 31 1002.9
20200531074606 83 308 0.0 0.0 0.00 0.00 0.00 29 1003.0
20200531073115 84 351 0.0 0.9 0.00 0.00 0.00 28 1002.9
20200531071633 84 330 1.7 4.3 0.00 0.00 0.00 26 1002.9
20200531070100 84 328 2.6 4.3 0.00 0.00 0.00 27 1002.9
20200531064611 83 330 0.0 2.6 0.00 0.00 0.00 28 1002.6
20200531063118 84 311 0.9 2.6 0.00 0.00 0.00 28 1002.6
20200531061546 87 113 0.0 2.6 0.00 0.00 0.00 22 1002.0
20200531060056 86 92 0.0 0.9 0.00 0.00 0.00 25 1002.2
20200531054638 88 354 0.0 6.1 0.00 0.00 0.00 22 1002.3
20200531053059 89 338 3.5 10.4 0.00 0.00 0.00 17 1002.1
20200531051554 85 318 1.7 4.3 0.00 0.00 0.00 25 1002.4
20200531050105 85 297 1.7 3.5 0.00 0.00 0.00 27 1002.9
20200531044610 88 124 0.0 1.7 0.00 0.00 0.00 23 1002.4
20200531043309 88 94 0.0 5.2 0.00 0.00 0.00 22 1002.0
20200531041604 87 316 0.9 4.3 0.00 0.00 0.00 24 1002.3
20200531040112 87 313 0.0 1.7 0.00 0.00 0.00 25 1002.6
20200531034743 87 327 0.0 2.6 0.00 0.00 0.00 25 1003.0
20200531033044 88 308 0.9 6.1 0.00 0.00 0.00 23 1003.2
20200531031602 88 296 4.3 13.9 0.00 0.00 0.00 23 1002.7
20200531030027 89 307 7.0 13.9 0.00 0.00 0.00 22 1002.5
20200531024529 89 335 6.1 11.3 0.00 0.00 0.00 21 1002.9
20200531023043 90 284 0.0 2.6 0.00 0.00 0.00 20 1002.7
20200531021535 91 328 3.5 6.1 0.00 0.00 0.00 19 1002.4
20200531020049 92 274 0.0 2.6 0.00 0.00 0.00 19 1002.2
20200531014540 92 330 1.7 5.2 0.00 0.00 0.00 18 1001.8
20200531013027 92 342 1.7 5.2 0.00 0.00 0.00 18 1001.7
20200531011547 93 356 2.6 5.2 0.00 0.00 0.00 18 1001.4
20200531010128 93 311 4.3 13.0 0.00 0.00 0.00 17 1000.8
20200531004533 93 319 5.2 10.4 0.00 0.00 0.00 18 1000.6
20200531003023 94 318 4.3 9.6 0.00 0.00 0.00 18 1000.6
20200531001529 94 330 4.3 9.6 0.00 0.00 0.00 18 1000.7
20200531000022 94 64 0.0 3.5 0.00 0.00 0.00 16 1000.8
20200530234556 95 129 0.0 0.0 0.00 0.00 0.00 16 1001.1
20200530233030 95 271 0.0 7.0 0.00 0.00 0.00 16 1000.9
20200530231533 95 233 0.9 7.8 0.00 0.00 0.00 18 1000.7
20200530230041 96 284 0.0 10.4 0.00 0.00 0.00 18 1000.8
20200530224524 97 303 3.5 9.6 0.00 0.00 0.00 16 1000.7
20200530223052 99 290 3.5 7.0 0.00 0.00 0.00 16 1000.5
20200530221540 100 271 0.0 5.2 0.00 0.00 0.00 16 1000.3
20200530220050 100 278 0.9 3.5 0.00 0.00 0.00 15 1000.6
20200530214620 102 233 0.0 3.5 0.00 0.00 0.00 14 1000.6
20200530213036 103 262 0.9 6.1 0.00 0.00 0.00 15 1000.8
20200530211533 104 93 0.0 5.2 0.00 0.00 0.00 13 1001.1
20200530210016 102 320 1.7 3.5 0.00 0.00 0.00 14 1001.3
20200530204533 102 132 0.9 5.2 0.00 0.00 0.00 15 1001.6
20200530203005 101 299 2.6 7.0 0.00 0.00 0.00 15 1001.9
20200530201650 102 102 0.9 7.0 0.00 0.00 0.00 15 1002.1
20200530200218 101 323 4.3 9.6 0.00 0.00 0.00 16 1002.2
20200530194623 101 259 2.6 8.7 0.00 0.00 0.00 16 1002.5
20200530193147 101 34 2.6 8.7 0.00 0.00 0.00 17 1002.5
20200530191640 100 314 0.9 5.2 0.00 0.00 0.00 16 1002.7
20200530190112 100 327 0.9 5.2 0.00 0.00 0.00 17 1003.1
20200530184647 99 308 1.7 5.2 0.00 0.00 0.00 17 1003.3
20200530183129 100 289 1.7 4.3 0.00 0.00 0.00 16 1003.6
20200530181541 99 309 0.9 5.2 0.00 0.00 0.00 16 1004.0
20200530180110 98 1 0.0 2.6 0.00 0.00 0.00 16 1004.1
20200530174609 97 270 0.9 3.5 0.00 0.00 0.00 19 1004.3
20200530173054 96 140 0.9 2.6 0.00 0.00 0.00 19 1004.5
20200530171634 95 242 0.9 3.5 0.00 0.00 0.00 21 1004.6
20200530170039 93 283 0.0 3.5 0.00 0.00 0.00 23 1004.6
20200530164534 92 281 0.0 2.6 0.00 0.00 0.00 24 1004.7
20200530163054 92 276 0.0 2.6 0.00 0.00 0.00 23 1004.8
20200530161515 91 294 0.0 2.6 0.00 0.00 0.00 25 1004.8
20200530160010 89 227 0.0 0.9 0.00 0.00 0.00 25 1004.9
20200530154513 87 269 0.0 3.5 0.00 0.00 0.00 29 1005.1
20200530153006 86 321 0.0 1.7 0.00 0.00 0.00 31 1005.1
20200530151533 87 331 0.9 3.5 0.00 0.00 0.00 28 1005.2
20200530150008 87 305 0.0 0.9 0.00 0.00 0.00 27 1005.2
20200530144502 89 103 0.0 0.0 0.00 0.00 0.00 25 1005.3
20200530143139 88 105 0.0 0.0 0.00 0.00 0.00 28 1005.2
20200530141606 86 103 0.0 0.0 0.00 0.00 0.00 31 1005.1
20200530140208 83 109 0.0 0.0 0.00 0.00 0.00 34 1005.1
20200530134643 81 109 0.0 0.9 0.00 0.00 0.00 36 1005.1
20200530133134 78 321 0.0 0.9 0.00 0.00 0.00 39 1005.0
20200530131647 79 30 0.0 0.0 0.00 0.00 0.00 38 1005.0
20200530130117 77 31 0.0 0.0 0.00 0.00 0.00 35 1005.0
20200530124621 77 31 0.0 0.0 0.00 0.00 0.00 36 1005.0
20200530123125 75 31 0.0 0.0 0.00 0.00 0.00 35 1004.9
20200530121704 76 30 0.0 0.0 0.00 0.00 0.00 36 1004.6
20200530120200 76 30 0.0 0.0 0.00 0.00 0.00 35 1004.5
20200530114740 75 31 0.0 0.0 0.00 0.00 0.00 35 1004.2
20200530113142 77 31 0.0 0.0 0.00 0.00 0.00 37 1004.3
20200530111622 77 31 0.0 0.0 0.00 0.00 0.00 35 1004.4
20200530110123 77 239 0.0 0.9 0.00 0.00 0.00 36 1004.4
20200530104602 78 45 0.0 0.9 0.00 0.00 0.00 34 1004.3
20200530103050 81 29 0.0 0.9 0.00 0.00 0.00 30 1004.4
20200530101601 80 339 0.0 0.9 0.00 0.00 0.00 31 1004.4
20200530100114 81 219 0.0 0.0 0.00 0.00 0.00 30 1004.3
20200530094607 82 219 0.0 0.0 0.00 0.00 0.00 31 1004.3
20200530093101 85 164 1.7 4.3 0.00 0.00 0.00 26 1004.2
20200530091634 85 325 0.9 4.3 0.00 0.00 0.00 25 1004.1
20200530090041 83 324 0.0 0.9 0.00 0.00 0.00 29 1004.4
20200530084528 84 122 0.0 2.6 0.00 0.00 0.00 27 1004.8
20200530083104 86 136 0.0 4.3 0.00 0.00 0.00 25 1004.8